Theta_e
313 311 310 309 308 308 308 309 309 310 311 314 315 316 316 316 316 316 315 315 309 305 305 303 297 293 292 291 291 290 289 290 289 288 288 287 286 285 285 285 284 284 284
314 313 311 310 308 308 308 308 309 310 311 312 314 314 315 316 316 315 310 309 302 302 302 297 293 292 291 291 290 290 293 289 291 292 287 286 285 285 284 284 284 284 284
315 314 313 311 309 308 308 308 308 309 310 311 312 313 314 314 313 312 306 300 300 299 296 293 292 291 291 290 291 293 291 292 290 288 287 286 285 284 284 284 284 284 284
314 315 314 313 311 308 308 309 308 309 311 311 313 313 313 311 310 307 298 299 293 292 291 291 291 291 290 292 292 292 292 290 290 287 286 286 285 285 285 285 285 286 286
313 313 313 311 310 309 308 309 308 307 310 310 311 312 311 310 308 303 300 295 290 290 290 290 289 289 292 293 295 295 291 290 289 286 288 286 285 285 286 286 286 286 286
311 311 311 309 308 308 308 308 309 307 310 310 311 310 309 309 305 302 300 291 290 290 291 289 288 290 293 295 296 292 289 289 287 288 286 286 286 286 286 286 286 285 285
312 311 309 307 307 306 306 307 308 307 309 309 309 308 308 305 303 300 293 293 289 288 290 289 288 290 294 295 294 292 292 288 287 288 286 286 286 286 285 285 285 284 284
312 311 309 308 306 305 305 305 306 305 307 308 307 307 306 304 302 298 294 291 287 290 290 288 288 290 294 294 294 294 292 288 286 287 286 286 286 285 285 284 284 283 283
309 309 308 306 305 303 303 303 304 304 306 307 306 304 304 302 299 297 294 288 290 290 287 287 287 291 293 293 293 293 291 287 285 287 286 287 286 284 283 283 283 282 282
307 306 305 303 302 301 300 300 301 301 302 303 302 301 300 299 293 291 289 289 288 289 286 286 287 290 291 291 292 291 290 288 285 286 287 287 286 284 283 282 282 281 281
305 304 302 300 299 298 297 297 297 298 299 300 299 298 297 297 294 292 290 290 288 288 288 288 288 289 290 291 291 290 290 289 289 287 287 287 286 286 284 283 281 281 280
302 301 300 299 297 297 296 295 295 296 296 296 295 295 295 294 293 290 288 288 288 287 287 287 288 289 289 290 290 289 289 288 288 287 286 286 285 285 284 282 281 280 279
299 298 297 296 295 294 294 294 294 293 293 293 293 293 293 292 290 287 286 288 288 286 286 287 288 288 288 289 289 289 288 288 286 285 285 284 283 282 281 280 279 278 278
299 297 295 294 293 293 292 292 292 292 292 292 292 292 291 290 289 288 287 287 286 287 286 286 286 285 287 287 287 287 287 286 285 284 283 283 282 281 280 279 278 277 276
298 296 295 293 292 291 291 291 291 292 292 292 292 291 291 291 291 289 288 287 287 288 287 285 286 286 285 287 286 287 286 285 284 283 282 282 281 280 279 278 277 276 275
297 297 296 295 294 293 292 292 291 290 290 290 290 291 291 291 290 290 289 288 287 285 285 285 285 286 285 285 285 285 285 284 283 282 281 281 280 279 278 277 276 274 272
297 297 296 296 295 295 294 293 293 292 292 292 292 291 290 290 289 289 289 289 288 287 287 287 286 285 285 285 284 283 282 282 281 281 280 279 279 278 277 276 273 272 271
292 291 290 290 290 290 290 290 290 290 290 290 290 290 289 289 288 287 287 286 286 286 286 285 284 284 283 283 282 281 281 281 280 280 279 278 277 276 275 273 272 271 270
290 289 289 289 289 289 289 288 288 288 288 288 288 288 287 287 288 288 288 285 284 284 284 283 283 283 282 282 281 281 280 280 279 278 278 277 275 273 272 272 271 270 269
289 289 289 288 288 288 288 287 287 287 286 286 286 286 286 286 285 285 284 284 284 283 283 282 282 281 281 280 280 279 278 278 277 277 276 274 272 272 271 271 270 269 268
288 288 288 287 287 287 287 287 286 285 285 285 285 285 285 284 284 283 282 282 282 281 281 280 280 279 279 278 278 277 277 276 275 274 273 272 271 271 270 269 269 268 268
287 287 287 287 287 286 286 286 285 285 285 284 284 284 283 282 282 281 281 280 280 279 279 278 278 277 277 276 276 276 274 273 272 272 271 271 270 269 269 269 268 268 267
286 286 286 286 285 285 285 284 284 284 283 283 283 282 282 281 280 280 279 278 278 277 277 276 276 275 275 274 273 272 272 271 271 271 270 269 269 268 268 268 267 267 267
285 284 284 284 283 283 283 282 282 282 282 282 281 281 280 279 279 278 277 277 276 276 275 274 273 273 272 272 272 271 270 270 269 269 269 268 268 268 268 267 266 266 266
282 282 282 281 280 280 279 279 279 279 278 278 277 277 276 276 275 274 274 273 273 273 272 272 272 272 271 270 270 269 269 268 268 268 268 268 268 268 267 266 265 265 265
279 278 278 278 278 278 278 278 277 277 276 275 275 274 274 273 272 272 272 271 271 271 271 270 270 269 269 269 269 268 268 267 268 268 268 267 267 267 267 266 265 265 264
Wind_Speed
14 18 22 26 30 33 35 35 34 34 33 35 34 36 38 40 41 45 42 41 40 41 43 41 36 33 29 25 23 20 17 13 12 10 14 15 17 17 17 17 17 20 22
13 16 19 22 27 31 34 33 33 32 31 32 35 37 38 42 44 45 43 41 42 44 44 41 38 34 30 27 23 19 14 11 11 14 15 16 17 17 16 17 20 22 23
17 19 20 23 27 30 32 31 32 31 29 31 33 35 37 40 41 43 42 42 43 44 43 40 36 33 30 26 21 15 12 13 13 14 15 16 17 17 17 18 19 22 24
21 22 25 26 28 29 29 30 29 30 31 31 33 33 34 37 41 41 41 41 41 41 39 37 35 32 27 22 16 15 15 15 13 16 16 17 17 17 17 18 19 22 26
28 26 27 30 29 28 29 29 27 28 30 29 31 32 32 35 39 41 43 37 39 38 36 33 30 26 22 18 16 17 15 15 17 17 19 19 17 18 18 20 23 25 29
28 28 28 29 29 28 29 29 28 27 30 31 32 32 33 35 39 42 41 40 40 39 36 33 29 27 22 16 17 17 16 15 19 19 22 20 19 20 21 22 25 27 30
30 29 27 27 28 28 27 28 29 27 28 30 31 32 31 33 38 41 43 43 40 38 36 34 35 30 21 15 16 17 21 21 21 23 24 22 23 24 25 26 27 29 33
25 24 24 26 26 27 27 27 28 26 27 29 31 30 30 31 34 38 41 37 38 37 35 35 35 32 19 14 19 26 27 24 26 24 25 23 25 27 28 29 30 32 35
22 21 20 21 23 25 25 25 26 26 28 29 29 28 29 28 32 35 36 39 38 37 36 35 35 27 17 21 29 29 29 27 27 27 27 26 29 30 30 32 33 31 35
17 17 17 17 17 19 18 21 21 23 25 26 26 26 26 26 29 34 35 38 38 36 37 36 35 32 29 31 29 29 33 32 30 33 31 28 30 29 29 30 31 30 32
15 15 14 14 14 13 14 16 17 19 20 22 22 22 23 23 25 29 32 38 39 38 39 40 39 35 34 34 31 31 34 36 38 37 34 34 31 30 29 27 26 28 28
10 10 10 10 10 10 10 11 12 13 14 16 16 16 17 16 19 25 30 36 36 36 38 38 36 37 36 35 32 35 34 34 38 38 35 35 34 32 30 27 26 27 28
6 5 5 6 7 8 7 8 9 10 11 13 14 14 14 14 18 24 28 30 31 33 35 36 36 38 32 33 32 38 38 33 36 36 34 31 30 30 30 29 28 29 29
6 5 6 6 5 6 7 8 7 6 6 7 8 10 11 12 16 22 27 26 26 29 32 35 37 35 39 40 43 44 40 34 34 34 32 31 31 31 29 29 29 28 28
7 8 8 8 8 8 8 7 6 6 3 2 3 5 6 7 9 16 23 27 29 29 30 31 34 36 41 44 42 43 38 33 33 33 32 31 30 29 28 27 26 26 29
9 9 9 9 8 7 6 5 5 5 6 6 5 5 5 5 6 9 15 21 24 25 30 35 38 40 40 40 41 39 35 30 28 29 29 29 27 27 25 24 26 26 27
9 9 9 9 7 5 4 3 3 4 4 5 5 6 6 7 9 10 12 15 19 24 30 33 36 36 39 36 34 33 32 29 28 28 28 26 24 23 24 25 25 26 26
10 9 8 6 5 4 3 3 3 2 3 4 4 4 5 6 9 10 11 14 19 22 26 29 34 34 33 31 29 29 30 30 28 26 24 23 24 24 24 24 24 24 24
12 9 7 5 4 4 3 4 4 5 5 8 7 8 8 10 12 13 15 18 21 23 27 29 31 30 27 24 25 24 24 24 23 22 23 24 23 23 22 21 21 22 21
11 9 8 6 5 5 5 5 6 7 8 10 8 10 9 13 11 11 12 14 18 21 22 23 25 27 26 24 23 22 22 22 23 24 24 24 22 21 20 19 19 19 19
11 10 8 7 7 7 7 6 8 9 9 10 11 11 14 14 17 15 15 16 18 19 20 21 22 23 24 24 24 25 25 24 24 23 23 22 20 19 17 18 18 18 17
8 7 7 6 6 7 7 8 8 8 9 11 11 13 16 15 17 19 20 21 22 23 24 25 26 26 26 27 26 26 24 24 23 22 22 21 19 18 18 19 18 17 17
6 6 5 4 5 7 7 8 8 10 11 13 14 16 17 19 19 20 22 24 25 25 25 25 26 26 25 25 25 25 25 24 23 23 22 21 19 19 19 19 18 17 16
4 4 3 3 5 6 8 9 11 13 15 17 18 20 21 22 23 23 24 26 26 26 26 25 25 25 25 26 26 26 24 23 23 22 22 22 20 20 20 20 18 18 18
4 3 3 4 6 8 10 12 14 16 18 19 21 22 23 24 24 24 25 25 25 26 26 26 27 26 27 27 27 26 24 24 24 24 23 23 22 21 21 20 19 19 19
2 4 6 8 10 12 15 17 18 19 21 22 24 24 25 26 26 26 26 27 27 28 28 28 26 26 26 26 26 25 25 24 24 24 25 25 24 23 22 20 19 20 20
Wind_Direction
253 253 250 247 243 242 241 244 246 245 240 232 230 233 237 232 235 235 229 233 228 225 223 225 227 225 223 219 217 213 213 218 224 233 254 257 255 260 267 276 286 291 299
271 265 260 253 246 242 243 247 249 246 242 236 240 239 242 237 236 229 228 230 225 223 223 224 220 218 213 213 209 202 219 222 254 261 254 261 262 267 275 284 289 294 300
273 269 267 260 253 247 245 247 251 247 243 241 241 243 248 244 236 232 229 226 226 227 225 224 221 213 210 207 201 211 215 239 243 252 258 265 269 273 277 284 292 300 304
266 271 270 266 263 257 252 250 254 249 245 241 245 248 249 240 236 235 230 230 229 225 221 221 218 213 208 200 206 224 235 236 246 248 253 262 265 273 281 289 295 302 306
266 266 268 262 261 260 256 254 258 253 247 248 248 249 246 242 239 233 234 228 226 222 219 217 214 206 200 205 230 241 232 239 247 246 260 260 266 273 284 292 297 301 305
268 269 267 264 262 262 259 256 253 256 246 246 249 252 251 248 240 235 232 224 225 223 223 215 206 203 207 223 253 229 235 245 245 258 258 263 271 279 285 290 295 302 302
274 273 269 265 263 263 260 255 253 258 248 248 250 254 256 251 248 239 225 224 225 220 222 215 207 207 216 260 249 243 249 240 247 259 262 269 277 283 286 290 295 297 298
273 271 268 264 261 260 256 250 250 252 252 252 249 250 256 255 250 241 233 223 223 229 229 218 213 214 222 270 283 285 250 238 248 257 270 273 281 283 286 291 293 295 296
271 271 267 262 259 257 254 251 250 248 250 254 256 254 252 253 252 244 232 222 229 227 226 217 214 216 245 266 278 279 251 245 252 257 262 269 275 284 290 292 292 297 297
269 267 263 259 253 253 251 248 248 247 247 250 255 257 257 254 248 246 233 227 225 225 224 217 221 226 240 255 276 274 258 252 253 256 262 275 274 276 281 282 286 284 289
267 265 264 258 250 243 242 245 247 247 246 250 255 257 260 260 253 249 240 221 220 221 225 226 227 236 245 256 271 283 275 266 267 261 264 270 280 283 281 282 283 287 286
267 267 262 253 250 244 240 240 242 242 243 249 254 255 260 260 254 245 235 216 220 226 232 232 239 245 247 269 267 279 286 276 270 266 269 273 278 283 289 291 291 291 287
241 235 232 232 222 214 207 213 222 224 231 237 242 247 251 251 240 226 219 224 218 230 234 242 246 253 258 268 276 282 287 273 266 263 270 275 279 282 285 289 292 291 289
223 204 192 189 193 194 189 188 199 211 236 249 257 258 259 254 239 220 213 216 229 233 238 243 247 248 261 265 271 275 280 268 265 261 264 265 268 275 281 287 288 288 290
191 169 157 154 155 161 161 157 154 156 163 229 271 274 269 261 250 232 225 222 229 238 246 248 254 258 259 270 272 279 275 266 258 256 258 262 270 277 283 285 286 290 294
158 146 138 135 135 138 145 144 152 178 205 216 222 229 224 228 234 231 236 236 238 244 249 253 257 261 265 272 274 275 273 269 259 254 260 268 272 275 276 278 284 289 290
150 140 138 133 131 136 138 152 174 196 209 224 228 227 233 238 239 237 230 231 238 246 250 256 258 259 266 265 262 264 266 263 259 260 265 266 267 269 276 283 288 290 291
147 142 133 121 118 128 151 187 198 202 217 243 244 250 259 254 255 241 234 237 241 242 246 248 254 260 263 263 259 255 254 258 261 260 260 262 268 274 278 282 285 287 292
152 141 140 144 152 164 187 214 224 232 241 256 256 256 264 266 262 261 257 243 245 246 246 248 255 261 266 264 258 256 255 255 255 257 263 268 271 274 278 282 285 288 292
160 160 170 187 198 211 214 238 250 254 255 257 268 266 272 276 279 274 265 257 251 253 259 258 257 260 264 264 263 260 256 257 261 264 267 269 271 275 278 281 284 288 293
179 186 197 205 223 234 242 250 258 260 267 276 279 283 274 270 273 278 272 270 267 266 268 268 267 265 264 262 262 262 263 262 263 265 267 269 272 275 278 282 284 286 289
193 202 208 216 235 247 255 260 268 278 285 289 291 289 289 284 279 278 277 276 274 274 273 270 268 265 264 264 264 264 265 266 266 266 266 268 270 272 276 278 280 283 286
209 213 224 237 256 266 273 281 289 295 299 298 296 293 289 286 282 279 278 277 277 276 275 273 272 271 271 272 272 270 269 267 265 264 265 267 268 271 273 274 276 278 279
215 214 224 243 263 275 285 289 294 297 297 295 293 290 287 285 284 283 282 281 281 281 280 279 278 278 276 275 273 270 268 266 264 262 264 265 266 267 268 270 270 273 275
205 224 256 274 286 293 298 302 304 302 299 296 293 291 289 287 286 285 283 282 282 282 281 280 278 276 274 272 270 269 267 264 263 263 263 264 264 264 265 266 267 268 268
287 301 304 304 303 304 305 304 301 298 294 293 291 288 287 287 286 286 285 284 283 281 280 279 276 274 272 271 270 269 268 265 264 264 263 263 262 262 263 264 264 264 266